JQ3CCU-10 Weather Reports


Display with metric or nautical units.
time (UTC)temp
F
wind
direction
speed
MPH
gust
MPH
rain 1hr
in
rain 24hr
in
rain mn
in
humidity
%
barometer
mb
20260505085415 78 0 0.0 0.0 0.00 0.00 0.00 53
20260505082415 77 0 0.0 0.0 0.00 0.00 0.00 52
20260505075415 77 0 0.0 0.0 0.00 0.00 0.00 52
20260505072415 77 0 0.0 0.0 0.00 0.00 0.00 52
20260505065415 77 0 0.0 0.0 0.00 0.00 0.00 52
20260505062415 76 0 0.0 0.0 0.00 0.00 0.00 53
20260505055415 76 0 0.0 0.0 0.00 0.00 0.00 53
20260505052415 76 0 0.0 0.0 0.00 0.00 0.00 53
20260505035415 76 0 0.0 0.0 0.00 0.00 0.00 52
20260505032415 76 0 0.0 0.0 0.00 0.00 0.00 51
20260505025415 76 0 0.0 0.0 0.00 0.00 0.00 51
20260505022415 77 0 0.0 0.0 0.00 0.00 0.00 48
20260505015415 77 0 0.0 0.0 0.00 0.00 0.00 48
20260505012415 85 0 0.0 0.0 0.00 0.00 0.00 39
20260505005415 85 0 0.0 0.0 0.00 0.00 0.00 39
20260505002415 88 0 0.0 0.0 0.00 0.00 0.00 35
20260504235415 88 0 0.0 0.0 0.00 0.00 0.00 35
20260504232415 86 0 0.0 0.0 0.00 0.00 0.00 36
20260504225415 86 0 0.0 0.0 0.00 0.00 0.00 36
20260504222415 74 0 0.0 0.0 0.00 0.00 0.00 50
20260504215415 74 0 0.0 0.0 0.00 0.00 0.00 50
20260504212415 66 0 0.0 0.0 0.00 0.00 0.00 64
20260504205415 66 0 0.0 0.0 0.00 0.00 0.00 64
20260504202415 63 0 0.0 0.0 0.00 0.00 0.00 69
20260504195415 63 0 0.0 0.0 0.00 0.00 0.00 69
20260504192415 64 0 0.0 0.0 0.00 0.00 0.00 69
20260504185415 64 0 0.0 0.0 0.00 0.00 0.00 69
20260504182415 64 0 0.0 0.0 0.00 0.00 0.00 70
20260504175415 64 0 0.0 0.0 0.00 0.00 0.00 70
20260504172415 65 0 0.0 0.0 0.00 0.00 0.00 70